Free Severe Weather Alerts by Email and Text Message   

 
Follow iAlert.com on twitter @ialertcom
Search For Active Alerts in Your Area  
  Hi Guest:  [ Sign-up / Services ] [ Login ]

Current weather by "City, St" or "zip code"  

 

Advertise Here

Hazardous Weather Conditions

No active alerts for DENVER, COLORADO

Current Conditions: DENVER, COLORADO

Overcast


61.0 F

Last Updated on Jun 25 2017, 10:54 am MDT
Humidity: 68%
Wind Speed: N 6.9 mph
Barometer 30.40 in
Dewpoint: 50.0 F
Visibility: 10.00 mi
Precip: --
Heat Index: NA
Wind Chill: 60 F
Current conditions at:

Broomfield / Jeffco, CO (KBJC)

Lat: 39.90 Lon: -105.10

Local Radar Image active severe weather and emergency alerts image image weather storm and storm spotter reports image weather observation monitoring service image
Local
Radar
Active
Alerts
Storm Reports Weather
Monitoring

Weather Alert Notification Services


ialert severe weather and emergency alerts by text message and email ialert daily weather forecast by email and text message service ialert real-time weather-observation monitoring and alert notification service ialert storm report monitoring alert notification

Observation History for DENVER, COLORADO


Time Wind
(mph)
Vis
(mi)
Weather Precip (in) Temperature (F) Relative
Humidity
Wind
Chill
(°F)
Heat
Index
(°F)
Pressure
Air Dwpt altimeter
(in)
sea level
(mb)
10:54 am MDT N 6.9 10.00 Overcast -- 61.0 50.0 68% 60 NA 30.40 M
9:50 am MDT N 8.1 10.00 Overcast -- 59.0 50.0 72% 58 NA 30.40 M
8:54 am MDT N 5.8 10.00 Overcast -- 59.0 51.8 77% 58 NA 30.40 M
7:53 am MDT N 8.1 10.00 Fair -- 57.0 50.0 77% 55 NA 30.40 M
6:54 am MDT N 10.4 10.00 Fair -- 54.0 50.0 88% 51 NA 30.38 M
5:52 am MDT N 9.2 10.00 Fair -- 54.0 50.0 88% 51 NA 30.36 M
4:54 am MDT NW 8.1 10.00 Fair -- 55.0 48.2 77% 53 NA 30.35 M
3:52 am MDT N 0.0 10.00 Fair -- 54.0 48.2 82% NA NA 30.34 M
2:53 am MDT N 0.0 10.00 Fair -- 55.0 48.2 77% NA NA 30.36 M
1:54 am MDT N 0.0 10.00 Fair -- 57.0 46.4 67% NA NA 30.37 M
12:52 am MDT E 4.6 10.00 Fair -- 61.0 46.4 59% 61 NA 30.38 M
11:54 pm MDT NE 5.8 10.00 Mostly Cloudy -- 63.0 46.4 56% 63 NA 30.39 M
10:53 pm MDT N 0.0 10.00 Overcast -- 64.0 46.4 52% NA NA 30.39 M
9:53 pm MDT E 11.5 10.00 Overcast -- 64.0 46.4 52% NA NA 30.37 M
8:53 pm MDT E 10.4 10.00 Overcast -- 68.0 46.4 46% NA NA 30.34 M
7:52 pm MDT NE 10.4 10.00 Overcast -- 70.0 46.4 43% NA NA 30.32 M
6:54 pm MDT N 9.2 10.00 Mostly Cloudy -- 72.0 44.6 38% NA NA 30.30 M
5:53 pm MDT N 8.1 10.00 Partly Cloudy -- 72.0 44.6 38% NA NA 30.29 M
4:52 pm MDT N 6.9 10.00 Fair -- 73.0 42.8 33% NA NA 30.30 M
3:54 pm MDT W 3.5 10.00 Partly Cloudy -- 70.0 44.6 40% NA NA 30.31 M
2:53 pm MDT W 4.6 10.00 Partly Cloudy -- 72.0 44.6 38% NA NA 30.32 M
1:54 pm MDT N 0.0 10.00 Mostly Cloudy -- 68.0 44.6 43% NA NA 30.34 M
12:53 pm MDT N 5.8 10.00 Mostly Cloudy -- 64.0 46.4 52% NA NA 30.35 M
11:53 am MDT NE 3.5 10.00 Overcast -- 63.0 48.2 60% NA NA 30.36 M

Regional Weather Observation:


Erie Municipal Airport, CO (KEIK)

Overcast
61.0 F

Boulder Municipal Airport, CO (KBDU)

Overcast
61.0 F

Fort Collins/Loveland - Northern Colorado Regional Airport, CO (KFNL)

Overcast
63.0 F

Buckley Air Force Base Airport, CO (KBKF)

Partly Cloudy
63.0 F

Denver, Denver International Airport, CO (KDEN)

Partly Cloudy
64.0 F

Denver - Centennial Airport, CO (KAPA)

Partly Cloudy
63.0 F

Advertise Here


Advertise Here